Find Starlink 3252

NORAD ID: 49733 Int'l Des: 2021-115 Owner: SPXS Country: US Constellation: starlink operational
LEOCIRCULAR

現在のビュー

3D地球を読み込み中...

About Starlink 3252

Starlink 3252 (NORAD 49733) is a starlink constellation satellite (v1.5) launched Dec 2, 2021 by SPXS of US. It operates in LEO, CIRCULAR orbit with a mass of 290.00 kg.

Starlink 3252について

説明を読み込み中...

次回通過

Passes for default location (London). Set your location on the main map for personalized predictions.

高度履歴

Loading altitude history...

軌道要素

1 49733U 21115K 26170.92311485 .00000650 00000-0 58927-4 0 9991
2 49733 53.1602 60.0647 0001311 85.8056 274.3085 15.08833986250823
Epoch: Jun 19, 2026 • Age: 16 hours

現在のステータス

高度 549.9 km
速度 7.59 km/s
衛星直下点 -31.15°S, 86.56°W
打ち上げ日 Dec 2, 2021
運用期間 4.5 years
タイプ internet

技術仕様

分類 Payload
質量 290.00 kg
乾燥質量 270.00 kg
総質量 290.00 kg
長さ 0.20 m
直径 2.80 m
スパン 9.00 m
形状 Box + pan
製造者 SPXS
バスタイプ Starlink
フェーズステータス In Orbit
所有者/国 SPXS/US

Most Searched